Location: Byhalia Creek
(34.8270°N, 89.8040°W)
Time: 20:33:50
(UTC+00:00)

SL-4 R/B - Pass Details

Date: 22 April 2026
Orbit: 380 x 505 km, 51.6° (Epoch: 21 May)

Event Time Altitude Azimuth Distance (km) Brightness Sun altitude
Rises 01:07:27 0° 182° (S) 2,491 5.2 -6.9°
Reaches altitude 10° 01:10:31 10° 154° (SSE) 1,649 4.0 -7.5°
Maximum altitude 01:12:18 13° 125° (SE) 1,484 3.6 -7.8°
Drops below altitude 10° 01:14:07 10° 96° (E) 1,682 3.9 -8.2°
Enters shadow 01:14:11 10° 95° (E) 1,695 3.9 -8.2°
